Time,TemperatureF,DewpointF,PressureIn,WindDirection,WindDirectionDegrees,WindSpeedMPH,WindSpeedGustMPH,Humidity,HourlyPrecipIn,Conditions,Clouds,dailyrainin,SoftwareType,DateUTC
2013-09-09 00:11:00,42.6,40.7,30.10,NNE,22,0.0,-999.0,93,-99.99,,,0.00,Acu-Link.com,2013-09-09 04:11:00,
2013-09-09 00:27:00,42.3,40.4,30.11,South,180,0.0,-999.0,93,-99.99,,,0.00,Acu-Link.com,2013-09-09 04:27:00,
2013-09-09 00:42:00,42.1,40.5,30.11,ESE,112,0.0,-999.0,94,-99.99,,,0.00,Acu-Link.com,2013-09-09 04:42:00,
2013-09-09 00:58:00,41.4,40.1,30.11,NNE,22,0.0,-999.0,95,-99.99,,,0.00,Acu-Link.com,2013-09-09 04:58:00,
2013-09-09 01:13:00,41.2,40.1,30.12,NNE,22,0.0,-999.0,96,-99.99,,,0.00,Acu-Link.com,2013-09-09 05:13:00,
2013-09-09 01:28:00,40.8,39.5,30.12,WSW,247,0.0,-999.0,95,-99.99,,,0.00,Acu-Link.com,2013-09-09 05:28:00,
2013-09-09 01:44:00,40.5,39.5,30.12,SSE,157,0.0,-999.0,96,-99.99,,,0.00,Acu-Link.com,2013-09-09 05:44:00,
2013-09-09 01:59:00,40.3,39.3,30.12,NNE,22,0.0,-999.0,96,-99.99,,,0.00,Acu-Link.com,2013-09-09 05:59:00,
2013-09-09 02:14:00,40.1,39.1,30.12,SSW,202,0.0,-999.0,96,-99.99,,,0.00,Acu-Link.com,2013-09-09 06:14:00,
2013-09-09 02:29:00,39.7,38.9,30.12,North,0,0.0,-999.0,97,-99.99,,,0.00,Acu-Link.com,2013-09-09 06:29:00,
2013-09-09 02:45:00,39.4,38.4,30.13,SSE,157,0.0,-999.0,96,-99.99,,,0.00,Acu-Link.com,2013-09-09 06:45:00,
2013-09-09 03:00:00,39.2,38.2,30.13,NE,45,0.0,-999.0,96,-99.99,,,0.00,Acu-Link.com,2013-09-09 07:00:00,
2013-09-09 03:15:00,39.0,38.2,30.13,South,180,0.0,-999.0,97,-99.99,,,0.00,Acu-Link.com,2013-09-09 07:15:00,
2013-09-09 03:30:00,39.0,38.2,30.14,NNE,22,0.0,-999.0,97,-99.99,,,0.00,Acu-Link.com,2013-09-09 07:30:00,
2013-09-09 03:45:00,38.5,37.7,30.15,SE,135,0.0,-999.0,97,-99.99,,,0.00,Acu-Link.com,2013-09-09 07:45:00,
2013-09-09 04:01:00,38.3,37.3,30.14,NNE,22,0.0,-999.0,96,-99.99,,,0.00,Acu-Link.com,2013-09-09 08:01:00,
2013-09-09 04:17:00,38.1,37.1,30.15,NE,45,0.0,-999.0,96,-99.99,,,0.00,Acu-Link.com,2013-09-09 08:17:00,
2013-09-09 04:32:00,37.9,36.9,30.15,SW,225,0.0,-999.0,96,-99.99,,,0.00,Acu-Link.com,2013-09-09 08:32:00,
2013-09-09 04:47:00,37.6,36.8,30.15,NE,45,0.0,-999.0,97,-99.99,,,0.00,Acu-Link.com,2013-09-09 08:47:00,
2013-09-09 05:02:00,37.2,36.4,30.16,East,90,0.0,-999.0,97,-99.99,,,0.00,Acu-Link.com,2013-09-09 09:02:00,
2013-09-09 05:17:00,36.9,36.1,30.16,ENE,67,0.0,-999.0,97,-99.99,,,0.00,Acu-Link.com,2013-09-09 09:17:00,
2013-09-09 05:32:00,36.7,35.9,30.17,WSW,247,0.0,-999.0,97,-99.99,,,0.00,Acu-Link.com,2013-09-09 09:32:00,
2013-09-09 05:48:00,36.7,35.9,30.16,ESE,112,0.0,-999.0,97,-99.99,,,0.00,Acu-Link.com,2013-09-09 09:48:00,
2013-09-09 06:03:00,36.0,35.2,30.17,North,0,0.0,-999.0,97,-99.99,,,0.00,Acu-Link.com,2013-09-09 10:03:00,
2013-09-09 06:18:00,36.0,35.2,30.18,NE,45,0.0,-999.0,97,-99.99,,,0.00,Acu-Link.com,2013-09-09 10:18:00,
2013-09-09 06:33:00,35.6,34.8,30.19,NE,45,0.0,-999.0,97,-99.99,,,0.00,Acu-Link.com,2013-09-09 10:33:00,
2013-09-09 06:49:00,35.8,35.3,30.20,NNW,337,0.0,-999.0,98,-99.99,,,0.00,Acu-Link.com,2013-09-09 10:49:00,
2013-09-09 07:04:00,36.3,35.8,30.20,NE,45,0.0,-999.0,98,-99.99,,,0.00,Acu-Link.com,2013-09-09 11:04:00,
2013-09-09 07:19:00,37.6,37.1,30.20,NNE,22,0.0,-999.0,98,-99.99,,,0.00,Acu-Link.com,2013-09-09 11:19:00,
2013-09-09 07:35:00,39.2,38.7,30.21,North,0,0.0,-999.0,98,-99.99,,,0.00,Acu-Link.com,2013-09-09 11:35:00,
2013-09-09 07:50:00,40.5,40.0,30.22,NNE,22,1.7,-999.0,98,-99.99,,,0.00,Acu-Link.com,2013-09-09 11:50:00,
2013-09-09 08:05:00,42.3,41.8,30.22,SE,135,0.0,-999.0,98,-99.99,,,0.00,Acu-Link.com,2013-09-09 12:05:00,
2013-09-09 08:21:00,43.3,42.5,30.23,ENE,67,1.7,-999.0,97,-99.99,,,0.00,Acu-Link.com,2013-09-09 12:21:00,
2013-09-09 08:36:00,44.4,43.1,30.23,SSW,202,1.7,-999.0,95,-99.99,,,0.00,Acu-Link.com,2013-09-09 12:36:00,
2013-09-09 08:51:00,46.0,44.4,30.22,SSE,157,1.1,-999.0,94,-99.99,,,0.00,Acu-Link.com,2013-09-09 12:51:00,
2013-09-09 09:06:00,47.8,44.7,30.23,ESE,112,2.2,-999.0,89,-99.99,,,0.00,Acu-Link.com,2013-09-09 13:06:00,
2013-09-09 09:21:00,49.1,44.8,30.22,SSW,202,0.0,-999.0,85,-99.99,,,0.00,Acu-Link.com,2013-09-09 13:21:00,
2013-09-09 09:37:00,50.9,45.6,30.22,SW,225,3.2,-999.0,82,-99.99,,,0.00,Acu-Link.com,2013-09-09 13:37:00,
2013-09-09 09:52:00,52.9,46.9,30.22,NE,45,1.7,-999.0,80,-99.99,,,0.00,Acu-Link.com,2013-09-09 13:52:00,
2013-09-09 10:07:00,54.3,46.2,30.22,SW,225,2.2,-999.0,74,-99.99,,,0.00,Acu-Link.com,2013-09-09 14:07:00,
2013-09-09 10:23:00,55.4,45.4,30.21,SSW,202,2.2,-999.0,69,-99.99,,,0.00,Acu-Link.com,2013-09-09 14:23:00,
2013-09-09 10:38:00,56.7,45.9,30.21,North,0,2.2,-999.0,67,-99.99,,,0.00,Acu-Link.com,2013-09-09 14:38:00,
2013-09-09 10:53:00,57.6,44.7,30.20,NW,315,1.1,-999.0,62,-99.99,,,0.00,Acu-Link.com,2013-09-09 14:53:00,
2013-09-09 11:09:00,58.3,44.0,30.20,ENE,67,2.2,-999.0,59,-99.99,,,0.00,Acu-Link.com,2013-09-09 15:09:00,
2013-09-09 11:24:00,60.1,45.7,30.20,NNE,22,4.7,-999.0,59,-99.99,,,0.00,Acu-Link.com,2013-09-09 15:24:00,
2013-09-09 11:39:00,60.6,44.8,30.20,NNE,22,1.7,-999.0,56,-99.99,,,0.00,Acu-Link.com,2013-09-09 15:39:00,
2013-09-09 11:54:00,60.4,46.0,30.19,NE,45,2.2,-999.0,59,-99.99,,,0.00,Acu-Link.com,2013-09-09 15:54:00,
2013-09-09 12:09:00,60.8,47.7,30.18,North,0,1.7,-999.0,62,-99.99,,,0.00,Acu-Link.com,2013-09-09 16:09:00,
2013-09-09 12:25:00,61.3,45.9,30.18,NNE,22,2.7,-999.0,57,-99.99,,,0.00,Acu-Link.com,2013-09-09 16:25:00,
2013-09-09 12:40:00,62.6,45.2,30.17,West,270,0.0,-999.0,53,-99.99,,,0.00,Acu-Link.com,2013-09-09 16:40:00,
2013-09-09 12:55:00,63.9,46.9,30.17,NNW,337,1.7,-999.0,54,-99.99,,,0.00,Acu-Link.com,2013-09-09 16:55:00,
2013-09-09 13:10:00,64.4,47.4,30.16,ENE,67,1.7,-999.0,54,-99.99,,,0.00,Acu-Link.com,2013-09-09 17:10:00,
2013-09-09 13:26:00,65.1,47.0,30.16,West,270,3.2,-999.0,52,-99.99,,,0.00,Acu-Link.com,2013-09-09 17:26:00,
2013-09-09 13:41:00,64.4,46.4,30.16,NE,45,2.2,-999.0,52,-99.99,,,0.00,Acu-Link.com,2013-09-09 17:41:00,
2013-09-09 13:56:00,66.2,47.0,30.16,South,180,4.7,-999.0,50,-99.99,,,0.00,Acu-Link.com,2013-09-09 17:56:00,
2013-09-09 14:12:00,67.3,46.9,30.15,ESE,112,1.7,-999.0,48,-99.99,,,0.00,Acu-Link.com,2013-09-09 18:12:00,
2013-09-09 14:27:00,66.2,47.0,30.15,NNE,22,3.7,-999.0,50,-99.99,,,0.00,Acu-Link.com,2013-09-09 18:27:00,
2013-09-09 14:42:00,67.8,49.0,30.15,East,90,1.1,-999.0,51,-99.99,,,0.00,Acu-Link.com,2013-09-09 18:42:00,
2013-09-09 14:58:00,66.4,49.7,30.15,NW,315,2.2,-999.0,55,-99.99,,,0.00,Acu-Link.com,2013-09-09 18:58:00,
2013-09-09 15:13:00,67.3,50.6,30.14,West,270,1.1,-999.0,55,-99.99,,,0.00,Acu-Link.com,2013-09-09 19:13:00,
2013-09-09 15:28:00,67.5,50.3,30.14,WNW,292,2.2,-999.0,54,-99.99,,,0.00,Acu-Link.com,2013-09-09 19:28:00,
2013-09-09 15:43:00,66.9,50.2,30.13,NE,45,2.2,-999.0,55,-99.99,,,0.00,Acu-Link.com,2013-09-09 19:43:00,
2013-09-09 15:58:00,67.5,52.2,30.13,NW,315,2.2,-999.0,58,-99.99,,,0.00,Acu-Link.com,2013-09-09 19:58:00,
2013-09-09 16:14:00,67.5,51.2,30.12,NNE,22,1.1,-999.0,56,-99.99,,,0.00,Acu-Link.com,2013-09-09 20:14:00,
2013-09-09 16:29:00,65.7,51.0,30.12,North,0,0.0,-999.0,59,-99.99,,,0.00,Acu-Link.com,2013-09-09 20:29:00,
2013-09-09 16:44:00,65.5,51.2,30.12,ESE,112,0.0,-999.0,60,-99.99,,,0.00,Acu-Link.com,2013-09-09 20:44:00,
2013-09-09 16:59:00,64.6,50.8,30.12,North,0,1.7,-999.0,61,-99.99,,,0.00,Acu-Link.com,2013-09-09 20:59:00,
2013-09-09 17:14:00,64.0,51.6,30.12,NW,315,0.0,-999.0,64,-99.99,,,0.00,Acu-Link.com,2013-09-09 21:14:00,
2013-09-09 17:29:00,63.7,51.7,30.11,North,0,0.0,-999.0,65,-99.99,,,0.00,Acu-Link.com,2013-09-09 21:29:00,
2013-09-09 17:45:00,63.0,51.5,30.12,NNE,22,2.2,-999.0,66,-99.99,,,0.00,Acu-Link.com,2013-09-09 21:45:00,
2013-09-09 18:00:00,62.1,51.4,30.11,NW,315,0.0,-999.0,68,-99.99,,,0.00,Acu-Link.com,2013-09-09 22:00:00,
2013-09-09 18:15:00,61.2,52.1,30.12,SSW,202,0.0,-999.0,72,-99.99,,,0.00,Acu-Link.com,2013-09-09 22:15:00,
2013-09-09 18:31:00,60.4,52.8,30.12,South,180,0.0,-999.0,76,-99.99,,,0.00,Acu-Link.com,2013-09-09 22:31:00,
2013-09-09 18:46:00,59.4,52.9,30.11,South,180,0.0,-999.0,79,-99.99,,,0.00,Acu-Link.com,2013-09-09 22:46:00,
2013-09-09 19:01:00,58.5,52.7,30.10,SE,135,0.0,-999.0,81,-99.99,,,0.00,Acu-Link.com,2013-09-09 23:01:00,
2013-09-09 19:16:00,57.7,52.6,30.11,NNE,22,0.0,-999.0,83,-99.99,,,0.00,Acu-Link.com,2013-09-09 23:16:00,
2013-09-09 19:32:00,57.0,52.2,30.11,SSE,157,0.0,-999.0,84,-99.99,,,0.00,Acu-Link.com,2013-09-09 23:32:00,
2013-09-09 19:47:00,56.8,52.3,30.11,West,270,0.0,-999.0,85,-99.99,,,0.00,Acu-Link.com,2013-09-09 23:47:00,
2013-09-09 20:02:00,56.1,52.0,30.12,South,180,0.0,-999.0,86,-99.99,,,0.00,Acu-Link.com,2013-09-10 00:02:00,
2013-09-09 20:17:00,55.8,52.3,30.12,SSE,157,0.0,-999.0,88,-99.99,,,0.00,Acu-Link.com,2013-09-10 00:17:00,
2013-09-09 20:33:00,55.0,51.5,30.13,SSW,202,0.0,-999.0,88,-99.99,,,0.00,Acu-Link.com,2013-09-10 00:33:00,
2013-09-09 20:49:00,54.5,51.0,30.13,SSW,202,0.0,-999.0,88,-99.99,,,0.00,Acu-Link.com,2013-09-10 00:49:00,
2013-09-09 21:04:00,54.3,50.8,30.13,ESE,112,0.0,-999.0,88,-99.99,,,0.00,Acu-Link.com,2013-09-10 01:04:00,
2013-09-09 21:19:00,53.6,51.0,30.12,NNE,22,0.0,-999.0,91,-99.99,,,0.00,Acu-Link.com,2013-09-10 01:19:00,
2013-09-09 21:34:00,53.2,50.6,30.12,SE,135,0.0,-999.0,91,-99.99,,,0.00,Acu-Link.com,2013-09-10 01:34:00,
2013-09-09 21:50:00,52.9,50.6,30.12,NE,45,0.0,-999.0,92,-99.99,,,0.00,Acu-Link.com,2013-09-10 01:50:00,
2013-09-09 22:05:00,52.3,50.3,30.11,SSE,157,0.0,-999.0,93,-99.99,,,0.00,Acu-Link.com,2013-09-10 02:05:00,
2013-09-09 22:20:00,52.2,50.2,30.11,South,180,0.0,-999.0,93,-99.99,,,0.00,Acu-Link.com,2013-09-10 02:20:00,
2013-09-09 22:35:00,52.0,50.3,30.11,WSW,247,0.0,-999.0,94,-99.99,,,0.00,Acu-Link.com,2013-09-10 02:35:00,
2013-09-09 22:50:00,51.6,50.5,30.11,SW,225,0.0,-999.0,96,-99.99,,,0.00,Acu-Link.com,2013-09-10 02:50:00,
2013-09-09 23:06:00,51.4,50.3,30.11,SSE,157,0.0,-999.0,96,-99.99,,,0.00,Acu-Link.com,2013-09-10 03:06:00,
2013-09-09 23:21:00,51.1,50.0,30.11,SE,135,0.0,-999.0,96,-99.99,,,0.00,Acu-Link.com,2013-09-10 03:21:00,
2013-09-09 23:36:00,51.1,50.3,30.11,SW,225,0.0,-999.0,97,-99.99,,,0.00,Acu-Link.com,2013-09-10 03:36:00,
2013-09-09 23:52:00,50.9,50.4,30.11,SSE,157,0.0,-999.0,98,-99.99,,,0.00,Acu-Link.com,2013-09-10 03:52:00,